Quincy, IL

6:24 AM CST on November 14, 2019 (GMT -0600)
Quincy Regional-Baldwin

Weather History for KUIN - August, 2019

Change the Weather History Date:

Saturday, August 3, 2019

  Actual Average Record
Temperature  
Mean Temperature 76 °F 76 °F  
Max Temperature 84 °F 85 °F 105 °F (1947)
Min Temperature 68 °F 66 °F 50 °F (1950)
Degree Days  
Heating Degree Days 0 0  
Month to date heating degree days 0 0  
Since 1 June heating degree days 5 16  
Since 1 July heating degree days 0 0  
Cooling Degree Days 11 11  
Month to date cooling degree days 24 33  
Year to date cooling degree days 804 689  
Since 1 June cooling degree days 694 603  
Growing Degree Days 26 (Base 50)    
Moisture  
Dew Point 61 °F    
Average Humidity 61    
Maximum Humidity 78    
Minimum Humidity 43    
Precipitation  
Precipitation 0.00 in 0.12 in 2.87 in (1968)
Month to date precipitation 0.00 0.36  
Year to date precipitation 24.96 22.48  
Sea Level Pressure  
Sea Level Pressure 30.04 in    
Wind  
Wind Speed 6 mph (East)    
Max Wind Speed 12 mph    
Max Gust Speed 17 mph    
Visibility 10 miles    
Events      
T = Trace of Precipitation, MM = Missing Value Source: NWS Daily Summary

Daily Weather History Graph

Daily Weather History Graph

Search for Another Location

Airport or City:

Astronomy

Aug. 03, 2019 Rise Set
Actual Time 6:04 AM CDT 8:16 PM CDT
Civil Twilight 5:34 AM CDT 8:46 PM CDT
Nautical Twilight 4:57 AM CDT 9:23 PM CDT
Astronomical Twilight 4:17 AM CDT 10:03 PM CDT
Moon 8:58 AM CDT (8/3) 10:22 PM CDT (8/3)
Length of Visible Light 15h 11m
Length of Day
14h 11m
Waxing Crescent, 10% of the Moon is Illuminated
Aug 3
Waxing Crescent
Aug 7
First Quarter
Aug 15
Full
Aug 23
Last Quarter
Aug 30
New

Hourly Weather History & Observations

Time (CDT) Temp. Heat Index Dew Point Humidity Pressure Visibility Wind Dir Wind Speed Gust Speed Precip Events Conditions
12:54 AM 71.1 °F - 63.0 °F 75% 30.07 in 10.0 mi East 5.8 mph - N/A   Clear
1:54 AM 70.0 °F - 63.0 °F 78% 30.06 in 10.0 mi East 6.9 mph - N/A   Clear
2:54 AM 69.1 °F - 62.1 °F 78% 30.06 in 10.0 mi East 5.8 mph - N/A   Clear
3:54 AM 69.1 °F - 60.1 °F 73% 30.05 in 10.0 mi East 5.8 mph - N/A   Clear
4:54 AM 69.1 °F - 60.1 °F 73% 30.04 in 10.0 mi East 5.8 mph - N/A   Clear
5:54 AM 69.1 °F - 60.1 °F 73% 30.05 in 10.0 mi East 6.9 mph - N/A   Clear
6:54 AM 68.0 °F - 60.1 °F 76% 30.06 in 10.0 mi ENE 4.6 mph - N/A   Clear
7:54 AM 71.1 °F - 60.1 °F 68% 30.06 in 10.0 mi East 8.1 mph - N/A   Scattered Clouds
8:54 AM 72.0 °F - 61.0 °F 68% 30.07 in 10.0 mi East 9.2 mph - N/A   Partly Cloudy
9:54 AM 77.0 °F - 62.1 °F 60% 30.07 in 10.0 mi East 8.1 mph - N/A   Clear
10:54 AM 78.1 °F - 63.0 °F 60% 30.07 in 10.0 mi East 6.9 mph - N/A   Clear
11:54 AM 79.0 °F - 63.0 °F 58% 30.07 in 10.0 mi East 6.9 mph - N/A   Clear
12:54 PM 81.0 °F 82.2 °F 63.0 °F 54% 30.07 in 10.0 mi East 9.2 mph - N/A   Clear
1:54 PM 82.9 °F 83.3 °F 61.0 °F 47% 30.06 in 10.0 mi ENE 9.2 mph - N/A   Clear
2:54 PM 82.9 °F 83.2 °F 60.1 °F 46% 30.05 in 10.0 mi ESE 8.1 mph - N/A   Clear
3:54 PM 82.9 °F 82.6 °F 57.9 °F 42% 30.02 in 10.0 mi ESE 6.9 mph - N/A   Clear
4:54 PM 84.0 °F 83.8 °F 59.0 °F 43% 30.01 in 10.0 mi ESE 8.1 mph - N/A   Clear
5:54 PM 82.9 °F 82.6 °F 57.9 °F 42% 30.00 in 10.0 mi Variable 3.5 mph - N/A   Clear
6:54 PM 82.0 °F 82.4 °F 60.1 °F 47% 30.00 in 10.0 mi ESE 4.6 mph - N/A   Clear
7:54 PM 80.1 °F 81.1 °F 61.0 °F 52% 30.00 in 10.0 mi East 4.6 mph - N/A   Clear
8:54 PM 77.0 °F - 62.1 °F 60% 30.01 in 10.0 mi East 4.6 mph - N/A   Clear
9:54 PM 73.9 °F - 62.1 °F 66% 30.02 in 10.0 mi East 3.5 mph - N/A   Clear
10:54 PM 71.1 °F - 61.0 °F 70% 30.03 in 10.0 mi East 3.5 mph - N/A   Clear
11:54 PM 69.1 °F - 60.1 °F 73% 30.04 in 10.0 mi Calm Calm - N/A   Clear